Find Vela II-A

NORAD ID: 836 Int'l Des: 1964-040 Owner: AFSSD Country: US operational
HEOELLIPTICALHEO_ELLIPTICAL

Live-Position

3D-Globus wird geladen...

Über Vela II-A

Beschreibung wird geladen...

Nächste Überflüge

Passes for default location (London). Set your location on the main map for personalized predictions.

Höhenverlauf

Loading altitude history...

Zweizeiliger Elementsatz

1 836U 64040A 26092.35281057 .00000465 00000-0 00000+0 0 9995
2 836 52.5880 120.1375 4972260 278.8079 0.4577 0.23918867 10814
Epoch: 2. Apr. 2026 • Age: 312 hours

Aktueller Status

Höhe 83238.6 km
Geschwindigkeit 2.29 km/s
Subsatellitenpunkt 14.42°N, 156.26°E
Typ other

Most Searched